KC1HBM Weather Reports


Display with metric or nautical units.
time (UTC)temp
F
wind
direction
speed
MPH
gust
MPH
rain 1hr
in
rain 24hr
in
rain mn
in
humidity
%
barometer
mb
20260506051348 55 46 3.0 6.0 0.00 0.00 0.00 84 1006.2
20260506050846 55 338 0.0 1.0 0.00 0.00 0.00 85 1006.3
20260506050343 54 336 0.0 1.0 0.00 0.00 0.00 85 1006.2
20260506044833 54 310 3.0 3.0 0.00 0.00 0.00 85 1006.4
20260506044331 55 310 0.0 0.0 0.00 0.00 0.00 85 1006.4
20260506043828 55 350 1.0 2.0 0.00 0.00 0.00 85 1006.2
20260506043326 55 41 2.0 5.0 0.00 0.00 0.00 84 1006.2
20260506042824 55 34 2.0 2.0 0.00 0.00 0.00 84 1006.1
20260506042323 55 319 0.0 1.0 0.00 0.00 0.00 84 1006.3
20260506041821 55 333 2.0 3.0 0.00 0.00 0.00 84 1005.9
20260506041317 55 353 3.0 5.0 0.00 0.00 0.00 84 1006.1
20260506040815 55 336 1.0 2.0 0.00 0.00 0.00 84 1006.2
20260506040312 55 323 1.0 2.0 0.00 0.00 0.00 84 1005.9
20260506035808 56 350 1.0 2.0 0.00 0.00 0.00 84 1005.9
20260506035306 56 315 1.0 2.0 0.00 0.00 0.00 84 1006.0
20260506034803 55 309 2.0 3.0 0.00 0.00 0.00 84 1006.1
20260506034300 55 316 1.0 1.0 0.00 0.00 0.00 84 1005.9
20260506033757 55 327 2.0 2.0 0.00 0.00 0.00 84 1005.9
20260506033253 55 325 1.0 2.0 0.00 0.00 0.00 84 1005.9
20260506032750 55 314 1.0 1.0 0.00 0.00 0.00 84 1006.1
20260506032247 55 326 2.0 2.0 0.00 0.00 0.00 85 1005.9
20260506031744 54 314 0.0 0.0 0.00 0.00 0.00 86 1005.9
20260506031241 54 311 1.0 1.0 0.00 0.00 0.00 86 1005.8
20260506030739 54 320 1.0 1.0 0.00 0.00 0.00 86 1006.0
20260506030237 54 311 1.0 2.0 0.00 0.00 0.00 86 1006.1
20260506025733 55 311 0.0 1.0 0.00 0.00 0.00 85 1006.1
20260506025230 55 310 0.0 1.0 0.00 0.00 0.00 85 1006.0
20260506024727 55 314 0.0 0.0 0.00 0.00 0.00 84 1006.1
20260506024224 55 314 0.0 0.0 0.00 0.00 0.00 84 1006.2
20260506023720 55 308 0.0 1.0 0.00 0.00 0.00 84 1006.1
20260506023217 55 311 1.0 1.0 0.00 0.00 0.00 84 1005.8
20260506022714 55 311 0.0 0.0 0.00 0.00 0.00 83 1006.0
20260506022212 56 311 0.0 0.0 0.00 0.00 0.00 82 1006.2
20260506021710 56 314 0.0 0.0 0.00 0.00 0.00 81 1006.1
20260506021206 56 308 0.0 0.0 0.00 0.00 0.00 81 1006.4
20260506020703 56 326 1.0 1.0 0.00 0.00 0.00 81 1006.3
20260506020201 57 304 1.0 1.0 0.00 0.00 0.00 81 1006.1
20260506015658 57 309 1.0 1.0 0.00 0.00 0.00 81 1006.2
20260506015156 57 310 1.0 1.0 0.00 0.00 0.00 80 1006.1
20260506014653 57 310 0.0 1.0 0.00 0.00 0.00 80 1006.2
20260506014148 58 308 1.0 1.0 0.00 0.00 0.00 79 1006.4
20260506013646 58 311 1.0 1.0 0.00 0.00 0.00 79 1006.1
20260506013143 58 310 1.0 1.0 0.00 0.00 0.00 78 1006.0
20260506012639 58 320 0.0 1.0 0.00 0.00 0.00 78 1006.4
20260506012136 58 313 0.0 0.0 0.00 0.00 0.00 78 1006.2
20260506011634 59 307 2.0 2.0 0.00 0.00 0.00 78 1006.2
20260506011130 59 309 0.0 1.0 0.00 0.00 0.00 77 1005.8
20260506010629 59 313 0.0 1.0 0.00 0.00 0.00 77 1005.9
20260506010125 59 298 2.0 2.0 0.00 0.00 0.00 77 1005.8
20260506005622 60 308 1.0 1.0 0.00 0.00 0.00 76 1005.7
20260506005119 61 300 1.0 2.0 0.00 0.00 0.00 75 1005.9
20260506004615 61 313 0.0 0.0 0.00 0.00 0.00 73 1005.8
20260506004112 61 319 1.0 1.0 0.00 0.00 0.00 73 1005.6
20260506003609 61 316 0.0 0.0 0.00 0.00 0.00 73 1005.6
20260506003105 61 309 1.0 1.0 0.00 0.00 0.00 73 1005.6
20260506002601 62 308 1.0 1.0 0.00 0.00 0.00 73 1005.5
20260506002057 62 312 1.0 1.0 0.00 0.00 0.00 71 1005.5
20260506001553 62 319 1.0 2.0 0.00 0.00 0.00 71 1005.4
20260506001051 63 321 0.0 1.0 0.00 0.00 0.00 70 1005.2
20260506000548 63 343 1.0 2.0 0.00 0.00 0.00 70 1005.0
20260506000045 63 338 2.0 3.0 0.00 0.00 0.00 71 1004.7
20260505235543 62 306 2.0 2.0 0.00 0.00 0.00 72 1004.4
20260505235040 62 313 0.0 0.0 0.00 0.00 0.00 73 1004.3
20260505234537 62 308 0.0 0.0 0.00 0.00 0.00 73 1004.3
20260505234033 63 308 0.0 0.0 0.00 0.00 0.00 72 1004.4
20260505233531 63 304 0.0 0.0 0.00 0.00 0.00 72 1004.3
20260505233028 64 310 0.0 0.0 0.00 0.00 0.00 70 1004.2
20260505232526 62 308 0.0 0.0 0.00 0.00 0.00 71 1004.3
20260505232023 61 309 0.0 1.0 0.00 0.00 0.00 73 1004.6
20260505231520 61 309 0.0 1.0 0.00 0.00 0.00 74 1004.8
20260505231019 61 331 1.0 1.0 0.00 0.00 0.00 73 1004.7
20260505230516 60 287 2.0 2.0 0.00 0.00 0.00 75 1004.7
20260505230012 59 291 2.0 2.0 0.00 0.00 0.00 76 1003.9
20260505225509 59 313 3.0 5.0 0.00 0.00 0.00 75 1003.1
20260505225005 60 71 6.0 9.0 0.00 0.00 0.00 75 1003.1
20260505224502 59 30 6.0 9.0 0.00 0.00 0.00 75 1002.9
20260505223959 59 294 6.0 9.0 0.00 0.00 0.00 76 1002.7
20260505223456 59 63 3.0 10.0 0.00 0.00 0.00 76 1002.7
20260505222953 59 266 6.0 9.0 0.00 0.00 0.00 75 1002.8
20260505222449 59 27 10.0 11.0 0.00 0.00 0.00 75 1002.6
20260505221945 59 65 6.0 8.0 0.00 0.00 0.00 75 1002.6
20260505221442 59 74 8.0 17.0 0.00 0.00 0.00 75 1002.7
20260505220939 59 81 13.0 18.0 0.00 0.00 0.00 75 1002.5
20260505220436 59 284 5.0 7.0 0.00 0.00 0.00 75 1002.6
20260505215934 60 7 3.0 5.0 0.00 0.00 0.00 75 1002.3
20260505215432 59 60 3.0 5.0 0.00 0.00 0.00 76 1002.4
20260505214929 59 75 4.0 8.0 0.00 0.00 0.00 75 1002.4
20260505214427 59 52 6.0 9.0 0.00 0.00 0.00 76 1002.7
20260505213924 59 35 5.0 7.0 0.00 0.00 0.00 77 1002.7
20260505213422 59 307 3.0 3.0 0.00 0.00 0.00 76 1002.4
20260505212918 59 349 3.0 3.0 0.00 0.00 0.00 78 1002.4
20260505212415 58 19 4.0 6.0 0.00 0.00 0.00 78 1002.3
20260505211911 58 27 6.0 8.0 0.00 0.00 0.00 78 1002.2
20260505211409 57 28 8.0 14.0 0.00 0.00 0.00 79 1002.4
20260505210905 58 325 1.0 1.0 0.00 0.00 0.00 79 1002.2
20260505210402 59 307 1.0 2.0 0.00 0.00 0.00 78 1002.3
20260505205859 59 24 3.0 5.0 0.00 0.00 0.00 77 1002.4
20260505205357 59 329 4.0 6.0 0.00 0.00 0.00 77 1002.3
20260505204854 60 19 7.0 9.0 0.00 0.00 0.00 77 1002.1
20260505204352 59 242 4.0 6.0 0.00 0.00 0.00 77 1002.2
20260505203849 59 85 9.0 14.0 0.00 0.00 0.00 77 1002.4
20260505203345 60 20 7.0 8.0 0.00 0.00 0.00 76 1002.7
20260505202842 60 79 2.0 3.0 0.00 0.00 0.00 75 1002.5
20260505202337 60 14 3.0 3.0 0.00 0.00 0.00 76 1002.6
20260505201834 60 0 6.0 13.0 0.00 0.00 0.00 76 1002.3
20260505201332 60 300 5.0 6.0 0.00 0.00 0.00 76 1002.4
20260505200830 60 352 4.0 5.0 0.00 0.00 0.00 76 1002.5
20260505200327 60 61 7.0 11.0 0.00 0.00 0.00 75 1002.6
20260505195822 60 312 6.0 8.0 0.00 0.00 0.00 76 1002.8
20260505195319 60 59 7.0 10.0 0.00 0.00 0.00 76 1002.9
20260505194817 61 39 6.0 8.0 0.00 0.00 0.00 75 1002.8
20260505194314 61 16 4.0 7.0 0.00 0.00 0.00 75 1002.9
20260505193809 61 342 6.0 9.0 0.00 0.00 0.00 76 1002.8
20260505193307 61 323 2.0 3.0 0.00 0.00 0.00 75 1003.0
20260505192805 61 6 3.0 3.0 0.00 0.00 0.00 76 1003.1
20260505192305 61 290 2.0 3.0 0.00 0.00 0.00 75 1003.3
20260505191800 60 6 2.0 3.0 0.00 0.00 0.00 76 1003.3
20260505191258 59 287 6.0 8.0 0.00 0.00 0.00 78 1003.4
20260505190755 59 293 5.0 9.0 0.00 0.00 0.00 78 1003.5
20260505190250 60 14 5.0 10.0 0.00 0.00 0.00 76 1003.7
20260505185746 61 41 8.0 14.0 0.00 0.00 0.00 75 1003.6
20260505185243 62 333 3.0 5.0 0.00 0.00 0.00 73 1003.6
20260505184739 62 5 4.0 5.0 0.00 0.00 0.00 73 1003.6
20260505184236 64 31 3.0 6.0 0.00 0.00 0.00 71 1003.7
20260505183733 64 293 4.0 5.0 0.00 0.00 0.00 70 1003.7
20260505183230 64 19 4.0 7.0 0.00 0.00 0.00 69 1003.5
20260505182727 63 51 7.0 11.0 0.00 0.00 0.00 71 1003.7
20260505182224 62 269 3.0 6.0 0.00 0.00 0.00 72 1003.6
20260505181720 61 0 3.0 5.0 0.00 0.00 0.00 74 1003.7
20260505181218 61 43 6.0 9.0 0.00 0.00 0.00 75 1004.0
20260505180714 61 30 3.0 5.0 0.00 0.00 0.00 75 1003.8
20260505180211 60 354 3.0 6.0 0.00 0.00 0.00 75 1004.2
20260505175707 60 337 3.0 5.0 0.00 0.00 0.00 75 1004.1
20260505175203 61 277 4.0 6.0 0.00 0.00 0.00 75 1004.0
20260505174700 61 346 1.0 2.0 0.00 0.00 0.00 74 1004.4
20260505174155 62 1 4.0 6.0 0.00 0.00 0.00 73 1004.2
20260505173653 63 229 6.0 9.0 0.00 0.00 0.00 71 1004.5
20260505173150 62 320 3.0 5.0 0.00 0.00 0.00 74 1004.4
20260505172647 62 340 1.0 1.0 0.00 0.00 0.00 73 1004.5
20260505172144 61 33 5.0 7.0 0.00 0.00 0.00 73 1004.6
20260505171644 62 338 4.0 6.0 0.00 0.00 0.00 73 1004.6
20260505171141 62 299 3.0 3.0 0.00 0.00 0.00 73 1004.4
20260505170638 63 48 5.0 8.0 0.00 0.00 0.00 71 1004.7
20260505170135 63 338 4.0 7.0 0.00 0.00 0.00 71 1005.1
20260505165629 65 28 2.0 2.0 0.00 0.00 0.00 68 1005.1
20260505165126 64 64 3.0 5.0 0.00 0.00 0.00 69 1005.2
20260505164621 66 270 4.0 7.0 0.00 0.00 0.00 67 1004.9
20260505164119 65 312 2.0 2.0 0.00 0.00 0.00 68 1004.9
20260505163617 64 214 1.0 2.0 0.00 0.00 0.00 70 1005.0
20260505163114 63 318 0.0 1.0 0.00 0.00 0.00 70 1005.3
20260505162612 63 354 2.0 3.0 0.00 0.00 0.00 71 1005.3
20260505162110 64 303 1.0 2.0 0.00 0.00 0.00 71 1005.4
20260505161606 63 310 1.0 1.0 0.00 0.00 0.00 72 1005.4
20260505161104 63 335 1.0 1.0 0.00 0.00 0.00 71 1005.6
20260505160601 63 343 4.0 6.0 0.00 0.00 0.00 70 1005.7
20260505153038 65 310 2.0 2.0 0.00 0.00 0.00 69 1006.0
20260505152535 65 315 2.0 2.0 0.00 0.00 0.00 70 1006.1
20260505152030 66 290 2.0 2.0 0.00 0.00 0.00 68 1006.3
20260505151525 65 308 2.0 2.0 0.00 0.00 0.00 69 1006.0
20260505151023 64 302 2.0 2.0 0.00 0.00 0.00 69 1006.2
20260505150519 63 331 2.0 2.0 0.00 0.00 0.00 72 1006.1
20260505140444 62 316 3.0 3.0 0.00 0.00 0.00 72 1006.1
20260505124858 60 315 1.0 2.0 0.00 0.00 0.00 74 1006.0
20260505124355 59 353 3.0 3.0 0.00 0.00 0.00 74 1006.1
20260505123851 57 341 1.0 2.0 0.00 0.00 0.00 76 1005.8
20260505123347 58 326 2.0 3.0 0.00 0.00 0.00 76 1005.9
20260505122843 57 298 2.0 3.0 0.00 0.00 0.00 77 1006.0
20260505122341 56 310 3.0 5.0 0.00 0.00 0.00 78 1006.1
20260505121838 58 318 1.0 2.0 0.00 0.00 0.00 77 1006.1
20260505121335 58 308 2.0 3.0 0.00 0.00 0.00 76 1006.1
20260505120831 56 309 1.0 2.0 0.00 0.00 0.00 80 1006.1
20260505120327 55 10 1.0 2.0 0.00 0.00 0.00 81 1006.3
20260505115826 56 323 1.0 2.0 0.00 0.00 0.00 79 1006.5
20260505115323 56 325 2.0 3.0 0.00 0.00 0.00 80 1006.6
20260505114821 55 301 2.0 2.0 0.00 0.00 0.00 80 1006.4
20260505114317 55 287 2.0 2.0 0.00 0.00 0.00 82 1006.6
20260505113813 54 320 1.0 1.0 0.00 0.00 0.00 83 1006.6
20260505113310 53 310 1.0 2.0 0.00 0.00 0.00 85 1006.7
20260505112806 53 332 0.0 1.0 0.00 0.00 0.00 84 1006.8
20260505112305 53 318 1.0 1.0 0.00 0.00 0.00 84 1006.5
20260505111759 53 55 3.0 3.0 0.00 0.00 0.00 83 1006.5
20260505111254 53 342 0.0 1.0 0.00 0.00 0.00 84 1006.6
20260505110750 53 320 0.0 1.0 0.00 0.00 0.00 84 1006.5
20260505110249 53 328 2.0 3.0 0.00 0.00 0.00 84 1006.3
20260505101722 50 339 4.0 6.0 0.00 0.00 0.00 88 1006.4
20260505101218 50 313 3.0 5.0 0.00 0.00 0.00 88 1006.5
20260505100715 50 349 2.0 2.0 0.00 0.00 0.00 88 1006.4
20260505100212 50 297 1.0 1.0 0.00 0.00 0.00 88 1006.5
20260505095707 50 323 2.0 3.0 0.00 0.00 0.00 88 1006.3
20260505095206 50 301 3.0 3.0 0.00 0.00 0.00 88 1006.4
20260505094701 50 17 3.0 3.0 0.00 0.00 0.00 88 1006.3
20260505094157 50 317 1.0 2.0 0.00 0.00 0.00 87 1006.2
20260505093654 50 317 1.0 1.0 0.00 0.00 0.00 86 1006.5
20260505093151 50 311 2.0 2.0 0.00 0.00 0.00 85 1006.3
20260505092648 51 319 0.0 0.0 0.00 0.00 0.00 84 1006.3
20260505092147 51 309 1.0 1.0 0.00 0.00 0.00 84 1006.3
20260505091643 51 332 1.0 1.0 0.00 0.00 0.00 84 1006.4
20260505091141 50 326 1.0 1.0 0.00 0.00 0.00 85 1006.3
20260505090639 50 309 1.0 2.0 0.00 0.00 0.00 87 1006.3
20260505090137 49 313 0.0 1.0 0.00 0.00 0.00 88 1006.5
20260505085634 49 315 0.0 0.0 0.00 0.00 0.00 88 1006.3
20260505085132 49 314 0.0 0.0 0.00 0.00 0.00 89 1006.6
20260505084629 49 317 0.0 0.0 0.00 0.00 0.00 89 1006.7
20260505084128 49 313 0.0 0.0 0.00 0.00 0.00 89 1006.7
20260505083625 48 314 0.0 0.0 0.00 0.00 0.00 90 1006.4
20260505083121 48 314 0.0 0.0 0.00 0.00 0.00 90 1006.6
20260505082617 48 313 0.0 0.0 0.00 0.00 0.00 90 1006.7
20260505082114 48 314 0.0 0.0 0.00 0.00 0.00 90 1006.6
20260505081610 48 314 0.0 0.0 0.00 0.00 0.00 90 1006.6
20260505081108 48 315 0.0 0.0 0.00 0.00 0.00 89 1006.7
20260505080604 48 314 0.0 0.0 0.00 0.00 0.00 88 1006.7
20260505075556 49 313 0.0 0.0 0.00 0.00 0.00 87 1006.9
20260505075053 49 319 0.0 0.0 0.00 0.00 0.00 86 1006.9
20260505074550 50 314 0.0 0.0 0.00 0.00 0.00 85 1006.8
20260505074048 49 317 0.0 0.0 0.00 0.00 0.00 85 1006.7
20260505073545 49 314 0.0 0.0 0.00 0.00 0.00 85 1006.7
20260505073044 49 314 0.0 0.0 0.00 0.00 0.00 85 1006.8
20260505072539 50 315 0.0 0.0 0.00 0.00 0.00 84 1006.8
20260505072035 50 313 0.0 0.0 0.00 0.00 0.00 82 1006.6
20260505071530 50 313 0.0 0.0 0.00 0.00 0.00 81 1006.6
20260505071029 51 313 0.0 0.0 0.00 0.00 0.00 80 1006.5
20260505070526 51 312 0.0 1.0 0.00 0.00 0.00 80 1006.6
20260505070022 51 318 0.0 1.0 0.00 0.00 0.00 80 1006.7
20260505065518 51 309 0.0 0.0 0.00 0.00 0.00 80 1006.7
20260505065015 51 310 0.0 0.0 0.00 0.00 0.00 79 1006.5
20260505064512 52 330 1.0 1.0 0.00 0.00 0.00 79 1006.6
20260505064010 52 330 1.0 1.0 0.00 0.00 0.00 79 1006.5
20260505063507 52 311 0.0 0.0 0.00 0.00 0.00 79 1006.3
20260505063002 52 312 0.0 1.0 0.00 0.00 0.00 79 1006.7
20260505062500 51 325 1.0 2.0 0.00 0.00 0.00 80 1006.5
20260505061956 51 317 0.0 0.0 0.00 0.00 0.00 79 1006.4
20260505061454 51 315 0.0 0.0 0.00 0.00 0.00 79 1006.4
20260505060952 52 315 0.0 0.0 0.00 0.00 0.00 78 1006.5
20260505060449 53 316 0.0 1.0 0.00 0.00 0.00 75 1006.4
20260505055945 55 315 0.0 0.0 0.00 0.00 0.00 71 1006.7
20260505055441 55 319 1.0 1.0 0.00 0.00 0.00 68 1006.5